NIMBUS 2 DEB, 25612

Orbit data source: Space-Track

NIMBUS 2 DEB, 25612 is space debris in SSO originally from a launch on Sun, 15 May 1966 UTC launched from the Air Force Western Test Range (AFWTR). Debris objects in space refer to the collection of defunct objects orbiting the Earth. Examples of debris include non-operational satellites, rocket bodies, and fragments generated from explosions, collisions, or faulty payload assembly.

Loading next visibility...
Identifier
25612, 1966-040E
Orbit
SSO
Country
Flag of USUS
Related business
Manufacturer
Unknown
Mission
Spacecraft
Bus & Motor
Unknown
Mass
Unknown
Launch date (UTC)
1966-05-15 (59 years ago)
Launch vehicle
Unknown
Launch site
Air Force Western Test Range (AFWTR)
Object type
Payload
Rocket body
Debris
Shape & HBR
Unknown shape, 0.1 m
Radar Cross Section
Small (<0.1 m²)

Expand to show TLE details & history
Last TLE update: 3 days ago

TLE from 3 days ago
0 NIMBUS 2 DEB
1 25612U 66040E   25284.41270319  .00004092  00000-0  41923-2 0  9996
2 25612 100.4778 164.1464 0039271  43.8056 134.2238 13.76716341401310
Epoch: 2025-10-11T09:54Z
TLE epoch observation values (Epoch: 2025-10-11T09:54:17.555Z)
Latitude
1.5183°
Longitude
175.6081°
Altitude
998.37 km
Speed
7.343 km/s
True Right ascension
22h 57m 42s
True Declination
1° 30' 34"
Sunlit
Object was in full shadow at epoch
Visualization orbit readout
Latitude
Unknown
Longitude
Unknown
Altitude
Unknown
Speed
Unknown
Apparent Right ascension
Unknown
Apparent Declination
Unknown
Sunlit
N/A
Visualization observer readout
Local Sidereal Time
01:38:10
Azimuth
Unknown
Elevation
Unknown
Doppler factor
Unknown
Orbital elements
Apogee altitude
1,001.732 km
Perigee altitude
943.996 km
Semi-major axis
7,351.001 km
Eccentricity
0.00393
Inclination
100.4778°
RAAN
164.1464°
Arg. of periapsis
43.8056°
True anomaly
134.54519°
Mean anomaly
134.2238°
Eccentric anomaly
134.3846°
Mean motion
3.44368 °/min
Orbital period
104.54 mins
BSTAR
0.0041923
Loading maneuver chart data...
Computing Atmospheric mass density...
Loading historical data...
Loading historical data...
Loading historical data...
Loading historical data...
Loading historical data...
Loading historical data...
Loading historical data...

Documentation

Showing up to 5 results
|